Wetbulb
60.99 60.12 59.31 58.26 57.64 56.21 55.36 53.59 50.65 48.00 45.37 41.20 39.03 38.43 37.91 37.41 37.44 39.37 40.93 47.88 54.03 56.63 59.29 61.06 60.70 60.20 60.25 60.45 60.76 60.29 60.09 59.70 58.54 58.91 60.86 60.65 60.23 60.89 61.06 60.78 60.51 61.05 62.22
60.52 59.81 58.69 56.95 56.70 55.77 54.94 51.57 49.41 47.57 45.13 39.99 39.00 38.51 37.84 37.28 37.16 37.55 40.61 43.23 51.66 55.42 58.32 61.14 60.65 61.09 61.09 60.81 60.94 61.07 59.43 58.61 57.84 57.30 58.36 59.93 59.73 59.34 58.28 58.23 58.16 58.94 59.33
60.70 59.30 57.71 56.89 56.91 55.30 53.27 51.13 49.29 47.15 44.26 39.81 38.19 37.65 37.30 37.15 36.94 37.17 38.35 42.27 45.70 50.49 54.29 58.91 60.71 60.90 61.69 62.27 62.06 62.46 59.80 57.98 57.70 55.90 56.98 58.49 57.44 57.17 56.23 55.29 55.76 56.02 57.28
61.01 59.52 58.17 56.84 56.34 54.53 52.80 50.74 49.14 47.10 45.12 42.18 38.19 36.89 35.67 35.76 36.38 36.77 37.25 40.13 43.68 45.62 49.02 53.68 56.85 58.97 61.36 61.74 61.57 61.43 59.94 58.51 57.95 56.28 56.59 57.74 57.44 56.69 55.62 54.43 55.62 55.43 55.82
58.51 58.99 57.72 57.35 56.00 53.93 51.81 50.73 47.78 46.78 45.00 42.72 40.48 37.06 35.48 34.75 35.17 36.95 35.88 37.01 38.95 44.37 44.65 48.78 51.74 51.06 55.19 59.88 61.52 61.22 60.73 59.10 58.16 56.53 55.93 56.49 55.71 55.53 55.39 54.57 54.39 54.61 54.84
52.52 54.00 53.81 53.12 53.20 52.28 50.25 48.62 47.13 43.19 41.45 41.07 39.79 38.89 35.78 34.93 34.64 34.57 34.91 36.36 37.03 40.27 42.95 43.34 43.62 44.52 50.02 54.82 59.40 59.97 60.53 60.02 58.66 57.37 55.85 55.96 55.61 55.44 55.45 54.72 54.14 53.91 54.05
45.51 47.71 48.97 48.78 49.83 48.50 47.45 46.04 43.92 43.33 42.65 39.11 39.20 38.98 37.87 37.06 34.57 34.53 34.27 34.36 35.19 37.39 39.30 41.50 41.71 41.24 42.40 50.23 54.35 58.05 60.85 60.46 59.99 58.50 56.81 55.68 55.26 54.65 54.73 54.24 54.26 54.38 54.12
40.18 41.65 44.02 45.07 45.47 46.04 45.67 44.53 43.22 41.93 40.98 39.34 37.99 35.75 35.70 35.41 33.60 33.31 33.15 34.11 33.67 34.95 36.27 37.40 37.76 38.74 39.28 40.20 43.47 52.34 56.50 60.33 60.42 59.69 57.91 56.11 55.33 54.73 54.52 54.63 54.56 54.13 54.17
35.88 36.79 37.61 39.34 41.15 42.47 42.34 42.73 42.24 41.54 40.38 39.90 37.70 38.25 35.69 33.13 31.91 32.71 32.37 32.35 32.67 33.45 34.40 35.13 35.96 36.31 36.71 37.03 41.67 44.53 49.66 54.01 57.74 59.47 58.76 57.00 55.73 54.75 54.46 54.28 54.13 54.31 54.05
31.93 32.89 34.02 34.80 35.32 36.01 35.77 38.18 40.70 39.84 39.26 38.24 38.25 37.42 35.62 34.90 33.38 32.43 32.59 33.12 31.79 32.59 32.90 33.04 33.92 34.60 35.16 35.41 38.69 42.20 45.18 48.36 50.91 54.06 57.09 58.22 56.39 54.98 54.10 53.91 53.77 53.66 53.59
30.63 30.78 30.86 30.93 31.13 31.97 32.13 33.24 34.37 35.37 37.16 36.13 37.38 36.72 35.25 34.88 34.59 32.51 32.51 33.18 33.50 33.01 32.67 33.01 33.50 33.24 33.96 33.92 34.25 37.25 43.16 45.95 48.25 50.45 52.32 54.66 56.31 54.90 53.90 53.48 53.35 53.55 53.51
28.66 29.00 29.53 29.01 29.34 29.47 29.47 30.31 31.15 32.29 33.30 34.47 35.14 35.75 35.73 35.04 34.45 33.73 32.51 34.82 33.04 33.12 32.21 32.45 31.99 32.79 33.22 33.04 35.63 39.56 41.99 44.60 46.75 48.81 51.05 53.11 55.19 53.98 53.46 52.97 52.86 53.27 53.44
25.89 26.70 27.61 27.62 27.81 28.28 28.46 28.75 28.05 28.74 29.64 30.31 31.79 33.11 35.00 35.54 37.16 36.02 34.43 33.78 33.72 32.72 30.96 30.73 32.04 32.24 33.67 32.07 33.04 37.50 39.94 42.93 45.27 47.05 50.20 53.01 53.95 53.05 52.33 52.10 51.84 52.01 52.66
25.66 26.11 25.94 26.40 26.16 26.89 27.10 26.81 26.52 26.50 27.31 28.41 28.72 30.09 31.22 32.91 34.35 34.36 33.97 33.32 31.59 32.89 33.86 32.32 30.28 31.06 31.80 32.08 33.31 37.29 35.45 40.62 43.33 45.51 47.86 52.13 52.42 52.09 51.21 51.09 50.98 50.73 51.24
26.81 24.56 24.30 24.11 24.67 24.83 24.92 25.15 24.22 24.11 24.88 25.58 26.34 28.19 28.53 30.43 32.50 32.64 33.00 32.70 31.60 29.73 30.85 33.30 31.18 31.38 31.35 31.39 32.81 32.40 32.94 37.24 41.22 43.54 46.57 50.48 51.05 50.33 50.50 50.55 50.37 50.08 50.26
24.30 24.14 24.14 23.85 23.67 23.91 23.60 23.01 22.83 23.86 23.14 23.44 24.87 24.58 25.77 27.34 29.03 30.27 31.30 31.76 31.27 30.27 28.60 31.79 33.78 32.25 33.04 32.92 32.69 32.76 32.37 36.29 38.47 40.85 43.84 46.87 49.50 49.48 49.43 49.34 49.26 48.93 49.11
24.16 24.12 24.00 23.62 23.28 22.86 22.84 22.07 21.72 22.12 21.85 22.23 22.66 23.18 24.44 25.49 25.60 26.75 27.87 29.33 29.14 28.36 27.32 29.05 31.95 32.79 32.54 32.25 33.76 31.13 32.08 32.23 33.57 38.32 40.54 43.28 46.23 47.97 48.66 48.62 47.95 47.77 47.67
24.07 23.65 23.73 23.07 22.76 22.62 22.02 21.68 21.20 21.24 20.70 20.99 21.95 22.21 22.60 25.40 24.03 24.07 25.01 25.45 26.59 27.58 27.34 25.43 28.11 29.49 30.44 32.53 32.18 31.59 31.60 31.58 31.78 35.61 39.01 40.80 43.13 45.19 46.45 47.17 46.96 46.72 46.66
22.47 22.43 22.48 21.71 21.40 21.60 21.44 21.60 21.53 21.48 21.13 21.23 21.71 21.90 22.32 22.67 22.79 23.49 23.60 23.86 24.64 26.61 26.28 26.16 26.01 28.21 29.04 30.32 30.85 30.82 30.75 31.82 31.30 34.66 38.01 39.30 40.36 42.98 44.84 45.84 45.69 45.10 44.59
20.36 19.45 19.18 19.02 19.29 19.47 20.10 21.02 21.87 21.50 21.52 22.21 22.81 22.87 22.62 22.38 22.21 22.23 23.12 23.66 24.79 24.39 24.99 24.92 25.16 25.70 26.68 28.40 28.03 28.66 29.09 29.44 30.47 31.76 33.63 35.45 37.11 39.40 42.40 44.29 44.31 43.07 43.10
17.82 17.73 17.24 16.86 17.09 17.51 19.70 19.65 20.09 19.66 19.52 19.74 20.78 21.69 22.37 23.27 25.77 25.79 24.00 23.12 22.98 22.62 23.54 24.26 24.23 25.00 25.04 25.40 25.96 27.82 27.37 29.27 30.59 30.67 31.11 30.14 31.73 33.11 35.01 40.58 40.86 41.41 42.76
15.20 15.18 14.82 14.32 13.79 15.80 19.21 21.06 21.06 18.49 18.02 17.29 16.51 17.58 18.28 18.93 20.93 23.90 25.60 26.70 26.08 23.50 22.07 22.26 23.58 22.97 24.16 26.10 27.09 27.39 27.94 27.27 25.85 29.92 29.45 30.09 30.08 29.57 31.59 34.42 39.13 41.76 42.56
12.86 12.12 12.07 12.06 11.42 12.27 17.72 19.66 19.84 17.34 16.26 15.65 15.66 15.81 16.26 17.82 17.53 17.86 20.17 22.17 22.76 23.85 24.85 21.86 20.00 20.98 21.82 24.60 26.51 26.85 27.37 27.43 27.31 29.40 28.06 27.85 29.08 27.77 29.99 32.20 37.50 40.16 41.68
10.01 9.69 9.62 9.44 10.34 11.08 16.39 17.56 18.40 16.36 14.65 14.46 14.72 15.04 14.88 15.25 16.23 17.06 17.12 17.04 18.21 19.22 20.21 20.95 20.39 20.73 21.92 23.40 24.39 25.59 25.70 26.78 29.17 29.96 28.01 25.84 28.96 28.41 29.09 29.77 35.42 37.61 39.91
7.42 6.23 9.41 6.98 6.37 6.82 13.44 16.54 16.67 14.65 13.55 13.42 14.43 15.06 14.89 14.64 17.40 19.92 17.93 16.89 17.61 18.26 21.76 23.47 24.60 25.88 27.17 28.20 27.78 25.11 23.38 24.80 24.12 25.95 28.17 26.97 28.21 27.71 27.48 28.58 29.94 35.77 37.79
7.26 7.61 7.23 6.23 5.74 4.35 11.24 14.92 16.34 14.38 11.47 12.59 13.56 14.77 17.53 17.75 20.22 21.41 18.26 16.40 14.06 15.46 16.81 16.44 17.82 19.94 21.94 21.42 24.46 23.70 23.29 21.38 22.85 24.45 28.68 24.80 26.82 22.54 21.01 26.28 28.88 29.41 32.22
MSLP
1020.58 1020.73 1021.04 1021.46 1021.75 1021.99 1022.21 1022.57 1023.03 1023.36 1023.58 1023.69 1023.79 1023.90 1023.92 1023.96 1023.97 1023.94 1023.84 1023.60 1023.32 1023.01 1022.69 1022.26 1022.18 1022.17 1022.19 1022.24 1022.37 1022.54 1022.54 1022.72 1022.67 1022.83 1022.87 1022.64 1022.46 1022.54 1022.55 1022.62 1022.72 1022.73 1022.77
1020.37 1020.63 1020.82 1021.19 1021.45 1021.75 1021.91 1022.18 1022.70 1023.25 1023.62 1023.90 1023.98 1023.94 1023.96 1023.95 1023.90 1023.86 1023.81 1023.69 1023.43 1023.25 1022.94 1022.49 1022.16 1022.12 1022.10 1022.18 1022.27 1022.35 1022.43 1022.78 1022.73 1023.05 1022.99 1022.95 1022.79 1022.92 1022.97 1023.06 1023.12 1022.91 1022.87
1020.12 1020.34 1020.73 1021.14 1021.09 1021.39 1021.91 1022.36 1022.77 1023.05 1023.37 1023.81 1024.02 1024.12 1024.23 1024.14 1024.02 1023.86 1023.75 1023.58 1023.45 1023.28 1023.13 1022.77 1022.34 1022.09 1022.00 1021.84 1021.81 1022.16 1022.27 1022.74 1022.85 1023.13 1023.24 1023.02 1022.88 1023.09 1023.31 1023.49 1023.49 1023.40 1023.34
1020.36 1020.44 1020.63 1020.83 1021.08 1021.40 1021.81 1022.26 1022.56 1023.08 1023.34 1023.65 1024.06 1024.25 1024.21 1024.17 1024.19 1024.10 1024.00 1023.85 1023.68 1023.45 1023.19 1022.94 1022.71 1022.48 1022.08 1021.96 1021.79 1022.01 1022.21 1022.45 1022.85 1023.03 1023.21 1023.13 1023.13 1023.24 1023.24 1023.58 1023.54 1023.59 1023.55
1020.96 1020.88 1021.05 1021.36 1021.57 1021.77 1021.93 1022.27 1022.87 1023.20 1023.38 1023.62 1023.81 1024.02 1024.18 1024.21 1023.99 1023.79 1023.88 1023.88 1023.79 1023.58 1023.43 1023.16 1022.92 1022.75 1022.50 1022.21 1021.94 1021.99 1022.07 1022.29 1022.61 1022.89 1023.20 1023.20 1023.22 1023.24 1023.24 1023.62 1023.74 1023.72 1023.65
1022.12 1021.94 1022.02 1022.11 1022.12 1022.36 1022.78 1023.04 1023.32 1023.61 1023.87 1023.93 1023.81 1023.95 1023.87 1023.79 1023.82 1023.71 1023.43 1023.36 1023.40 1023.42 1023.42 1023.34 1023.25 1023.10 1022.83 1022.48 1022.12 1022.15 1022.02 1021.81 1022.30 1022.66 1023.07 1023.02 1023.24 1023.25 1023.25 1023.52 1023.58 1023.75 1023.73
1023.24 1023.08 1023.16 1023.20 1023.17 1023.27 1023.50 1023.62 1023.83 1024.13 1024.13 1024.24 1024.06 1023.66 1023.54 1023.41 1023.47 1023.31 1023.44 1023.40 1023.28 1023.23 1023.18 1023.24 1023.34 1023.32 1023.15 1022.88 1022.55 1022.27 1021.97 1021.54 1021.90 1022.25 1022.61 1022.90 1023.13 1023.20 1023.23 1023.38 1023.52 1023.49 1023.50
1024.25 1024.19 1024.17 1024.15 1024.09 1023.95 1024.15 1024.29 1024.43 1024.59 1024.53 1024.47 1024.60 1024.68 1024.10 1023.65 1023.47 1023.45 1023.40 1023.31 1023.24 1023.22 1023.23 1023.22 1023.20 1023.17 1023.20 1023.15 1023.00 1022.60 1022.28 1021.85 1021.47 1021.65 1021.90 1022.50 1022.81 1023.01 1023.10 1023.13 1023.15 1023.25 1023.34
1025.67 1025.33 1024.96 1024.90 1025.03 1024.96 1025.00 1024.83 1024.84 1024.98 1025.16 1024.95 1024.99 1024.95 1024.82 1024.65 1024.26 1023.24 1023.24 1023.25 1023.34 1023.29 1022.85 1022.67 1022.69 1022.80 1022.83 1022.85 1022.81 1022.72 1022.49 1022.28 1021.94 1021.61 1021.38 1021.86 1022.42 1022.67 1022.76 1022.89 1022.91 1022.93 1023.00
1026.58 1026.53 1026.35 1026.04 1025.73 1025.90 1026.19 1025.98 1025.53 1025.47 1025.17 1025.27 1025.13 1025.41 1025.45 1025.41 1024.98 1023.87 1023.17 1022.91 1023.01 1023.11 1023.01 1022.80 1022.62 1022.44 1022.39 1022.40 1022.36 1022.32 1022.31 1022.18 1022.07 1021.89 1021.63 1021.24 1021.74 1022.27 1022.52 1022.56 1022.56 1022.57 1022.63
1027.25 1027.46 1027.30 1027.00 1026.85 1026.76 1026.81 1026.76 1026.42 1026.24 1026.31 1026.14 1025.87 1025.85 1025.73 1025.46 1025.27 1025.03 1023.60 1023.17 1022.85 1022.47 1022.52 1022.51 1022.28 1022.17 1021.98 1021.89 1021.87 1021.83 1021.83 1021.81 1021.68 1021.59 1021.49 1021.37 1021.26 1021.67 1022.08 1022.28 1022.30 1022.27 1022.25
1028.16 1028.12 1028.14 1027.90 1027.71 1027.81 1027.59 1027.51 1027.22 1026.96 1027.01 1026.71 1026.51 1026.30 1026.53 1026.30 1025.59 1025.41 1024.46 1023.39 1022.98 1022.47 1022.01 1021.90 1021.89 1021.61 1021.35 1021.37 1021.30 1021.13 1021.07 1021.06 1021.13 1021.14 1021.06 1020.94 1020.79 1021.18 1021.54 1021.77 1021.94 1021.96 1022.00
1029.01 1029.00 1028.81 1028.60 1028.45 1028.39 1028.36 1028.19 1027.97 1027.56 1027.31 1027.23 1027.27 1026.91 1026.55 1026.41 1025.98 1025.47 1024.93 1024.20 1023.20 1022.23 1021.95 1021.60 1021.27 1021.07 1020.70 1020.72 1020.62 1020.57 1020.60 1020.58 1020.40 1020.44 1020.46 1020.33 1020.37 1020.58 1020.92 1021.23 1021.42 1021.54 1021.57
1029.60 1029.48 1029.34 1029.10 1029.00 1028.78 1028.75 1028.55 1028.51 1028.10 1027.76 1027.56 1027.42 1027.42 1026.90 1026.35 1026.10 1025.99 1025.36 1024.79 1023.58 1022.81 1021.85 1021.56 1021.11 1020.81 1020.41 1020.09 1020.06 1020.02 1020.07 1020.01 1019.95 1019.77 1019.80 1019.76 1019.93 1020.15 1020.42 1020.66 1020.91 1021.10 1021.13
1029.62 1029.92 1029.53 1029.37 1029.30 1029.16 1028.90 1028.86 1028.83 1028.41 1028.24 1027.88 1027.53 1027.30 1027.31 1026.54 1025.93 1025.57 1025.37 1025.35 1024.82 1023.13 1021.57 1020.89 1021.30 1020.58 1020.36 1020.24 1019.83 1019.67 1019.74 1019.47 1019.27 1019.31 1019.25 1019.23 1019.29 1019.57 1019.81 1019.97 1020.24 1020.39 1020.56
1029.68 1029.63 1029.60 1029.38 1029.43 1029.45 1029.32 1029.08 1028.52 1028.29 1028.14 1027.75 1027.44 1027.11 1026.79 1026.46 1025.90 1025.22 1025.00 1024.98 1024.72 1024.40 1022.47 1021.04 1020.60 1020.34 1020.07 1019.82 1019.56 1019.24 1019.00 1018.86 1018.79 1018.68 1018.62 1018.56 1018.57 1018.65 1018.93 1019.15 1019.37 1019.56 1019.79
1029.91 1029.70 1029.45 1029.46 1029.45 1029.30 1029.23 1029.05 1028.70 1028.29 1027.85 1027.41 1027.12 1026.74 1026.43 1026.07 1025.42 1025.08 1024.62 1024.29 1024.18 1023.94 1022.60 1020.99 1020.27 1019.91 1019.52 1019.22 1018.87 1018.72 1018.54 1018.42 1018.19 1018.06 1017.93 1017.85 1017.86 1017.87 1017.93 1018.20 1018.42 1018.70 1018.98
1029.95 1029.93 1029.79 1029.72 1029.59 1029.32 1029.06 1028.77 1028.45 1028.04 1027.56 1027.25 1026.91 1026.55 1026.04 1025.67 1025.15 1024.87 1024.42 1023.88 1023.57 1023.18 1022.50 1021.23 1020.25 1019.74 1019.14 1018.81 1018.53 1018.02 1017.84 1017.77 1017.73 1017.50 1017.25 1017.01 1016.92 1016.99 1017.01 1017.10 1017.47 1017.86 1018.17
1030.08 1030.03 1029.89 1029.68 1029.40 1029.15 1028.82 1028.48 1028.12 1027.68 1027.30 1026.90 1026.48 1026.08 1025.68 1025.37 1024.84 1024.40 1023.94 1023.50 1023.05 1022.58 1021.91 1021.11 1019.95 1019.46 1018.69 1018.34 1018.08 1017.66 1017.16 1016.97 1016.82 1016.59 1016.45 1016.23 1016.14 1016.02 1015.99 1016.16 1016.41 1016.82 1017.23
1029.88 1029.77 1029.75 1029.64 1029.49 1029.27 1028.93 1028.38 1027.86 1027.48 1027.06 1026.53 1026.10 1025.68 1025.24 1024.88 1024.37 1023.89 1023.49 1023.02 1022.52 1021.82 1021.37 1020.46 1019.58 1019.05 1018.57 1017.70 1017.74 1017.52 1016.73 1016.25 1016.20 1015.82 1015.49 1015.50 1015.33 1015.04 1014.93 1015.05 1015.32 1015.70 1016.18
1030.01 1029.97 1029.79 1029.74 1029.65 1029.39 1028.70 1028.32 1027.87 1027.34 1026.88 1026.21 1025.76 1025.38 1024.81 1024.37 1023.78 1023.16 1022.73 1022.21 1021.89 1021.32 1020.62 1019.82 1018.99 1018.36 1017.82 1017.64 1017.45 1016.83 1016.29 1015.81 1015.17 1015.31 1014.76 1014.59 1014.75 1014.50 1014.14 1014.05 1014.37 1014.76 1015.10
1030.15 1030.15 1030.09 1029.99 1029.77 1029.46 1029.05 1028.45 1027.87 1027.29 1026.82 1026.34 1025.65 1025.21 1024.88 1024.32 1023.53 1022.75 1022.01 1021.52 1021.16 1020.43 1019.99 1019.61 1018.72 1017.92 1017.05 1017.03 1016.80 1016.37 1015.68 1015.47 1014.67 1013.91 1014.18 1013.49 1013.65 1013.39 1013.40 1013.08 1012.97 1013.38 1013.76
1030.29 1030.25 1030.19 1030.08 1029.85 1029.63 1028.93 1028.26 1027.75 1027.20 1026.65 1026.15 1025.61 1025.01 1024.34 1023.85 1023.48 1022.74 1022.02 1021.29 1020.70 1020.40 1019.90 1019.42 1018.56 1017.93 1017.24 1016.83 1016.57 1015.85 1015.22 1014.81 1013.92 1013.53 1013.88 1012.93 1012.99 1012.58 1012.55 1012.35 1012.15 1012.32 1012.70
1030.39 1030.37 1030.29 1030.20 1029.84 1029.51 1028.73 1028.10 1027.39 1026.75 1026.34 1025.87 1025.34 1024.76 1024.03 1023.29 1022.83 1022.11 1021.24 1020.51 1020.02 1019.68 1019.43 1018.93 1018.28 1017.43 1017.06 1016.77 1016.51 1015.78 1015.12 1014.43 1013.31 1012.71 1012.99 1012.09 1012.12 1011.35 1011.61 1011.26 1011.30 1011.19 1011.61
1030.55 1030.52 1030.26 1030.01 1029.77 1029.38 1028.72 1027.74 1026.94 1026.29 1025.79 1025.27 1024.73 1024.12 1023.38 1022.53 1021.94 1021.14 1020.13 1019.48 1018.97 1018.66 1018.38 1017.72 1016.90 1016.23 1015.79 1015.30 1014.93 1014.80 1014.40 1013.83 1011.83 1011.29 1011.67 1011.41 1010.68 1010.53 1010.57 1010.29 1010.12 1010.35 1010.40
1030.59 1030.42 1030.09 1029.95 1029.65 1029.11 1028.42 1027.45 1026.44 1025.60 1024.93 1024.31 1023.67 1022.99 1022.42 1021.50 1020.61 1019.87 1019.25 1018.68 1017.88 1017.55 1017.11 1016.47 1015.93 1015.36 1015.01 1014.62 1014.37 1014.38 1013.76 1012.82 1011.89 1010.41 1010.04 1010.58 1009.99 1010.33 1009.91 1008.88 1008.99 1009.17 1009.32
Wind_Speed
3 4 4 3 3 3 3 4 3 2 1 2 2 2 3 4 4 2 3 9 9 9 9 9 6 6 5 4 4 4 3 2 2 6 9 4 2 5 7 6 5 6 9
3 3 4 5 4 4 3 4 4 3 2 1 3 3 3 3 3 4 3 4 10 11 11 12 8 7 6 6 6 6 3 2 2 5 7 8 5 6 4 8 10 10 7
5 4 3 3 4 4 4 3 2 2 2 0 3 3 4 5 4 5 4 3 5 9 10 10 11 9 9 9 9 9 5 4 5 2 9 7 2 2 3 4 5 4 6
3 2 3 3 3 3 3 3 3 2 2 2 2 3 3 3 5 6 5 4 4 4 6 9 10 10 10 9 7 6 7 6 7 4 7 5 3 2 2 3 6 3 4
10 5 4 5 3 1 2 2 1 0 2 1 2 3 3 4 4 3 5 5 6 5 4 8 9 10 10 12 12 10 12 7 8 5 6 5 3 3 6 6 7 6 6
13 9 8 8 6 4 4 3 3 2 2 3 2 4 4 4 4 5 6 4 5 5 5 5 5 5 10 10 8 10 13 12 8 9 7 9 9 9 9 9 8 7 7
14 13 9 9 8 7 5 5 2 3 3 3 4 2 3 4 6 5 3 4 5 5 5 4 4 3 5 12 11 11 15 12 11 10 10 10 10 10 10 9 10 10 8
13 11 10 9 9 7 8 7 5 3 2 1 1 2 4 5 3 3 3 4 6 3 5 5 5 5 5 4 7 14 14 17 16 16 14 12 12 12 12 12 11 10 10
13 12 11 10 10 9 7 6 4 4 3 2 1 1 3 3 3 2 2 2 4 4 5 5 6 6 6 5 8 10 15 16 17 20 18 15 15 14 14 13 13 12 11
12 12 12 11 10 7 9 8 8 4 3 2 2 1 2 0 3 5 2 3 2 5 5 4 5 6 6 5 8 11 14 16 17 18 18 18 17 16 15 15 14 13 12
11 11 11 10 10 8 9 10 9 8 4 4 3 3 2 2 4 4 8 3 3 4 4 5 5 5 6 6 6 9 16 18 18 17 18 18 18 17 16 15 15 15 14
7 10 9 9 9 9 9 7 7 8 7 5 3 3 3 3 3 4 5 8 7 4 3 4 5 5 5 5 8 15 17 19 19 18 17 17 18 19 17 16 16 17 16
4 7 8 8 6 6 7 7 7 6 7 6 6 4 3 4 4 4 6 9 7 2 3 4 5 5 5 5 6 13 15 20 21 20 17 18 19 19 19 18 17 18 18
4 6 6 6 6 6 6 6 4 4 6 5 7 5 4 4 3 4 4 5 9 8 5 6 2 5 5 5 7 12 8 18 22 22 20 17 18 19 19 19 19 20 20
4 5 5 6 6 6 6 6 4 5 5 4 5 4 5 5 4 3 4 4 4 7 9 3 3 3 4 4 7 5 6 13 20 22 21 20 20 23 22 22 22 22 22
5 5 6 5 5 5 5 5 4 5 5 4 4 5 5 4 6 4 4 5 4 7 9 0 5 4 5 5 7 7 8 15 17 21 22 23 23 25 24 24 24 23 23
5 6 6 6 6 6 5 5 5 6 8 7 6 6 9 6 6 4 4 5 6 5 9 9 6 4 6 7 8 6 7 7 7 18 22 24 25 25 25 25 25 24 24
5 6 6 6 6 7 6 7 9 8 7 10 10 8 9 7 9 6 5 8 8 7 8 13 11 8 7 7 8 8 7 5 7 14 21 23 25 26 26 26 25 24 23
4 4 4 5 7 8 9 9 9 10 10 10 10 10 11 10 10 8 8 9 8 8 8 9 11 9 8 4 7 7 7 9 6 15 22 23 24 25 27 27 27 26 25
5 7 6 7 8 9 10 9 11 12 12 12 13 12 12 12 12 10 10 11 10 9 10 10 10 9 8 6 4 7 9 4 8 7 13 16 18 21 27 28 28 26 25
5 6 8 7 8 9 8 13 13 14 14 15 14 14 13 15 23 21 13 12 12 11 10 11 12 11 9 7 8 4 7 6 8 6 8 7 8 10 12 22 22 24 26
5 5 6 7 8 8 18 20 18 14 15 15 15 14 14 16 19 25 26 27 22 14 13 10 11 14 15 10 9 9 10 9 10 5 6 11 7 10 9 10 20 27 28
5 6 6 7 9 9 19 22 23 13 14 14 14 14 14 12 15 15 20 26 24 25 26 18 17 16 19 16 14 13 12 12 13 7 5 9 5 10 7 10 23 26 28
5 6 7 8 8 9 21 22 23 14 12 13 13 14 15 15 14 17 16 16 15 14 14 12 15 16 16 15 16 15 16 18 15 12 6 14 6 10 6 8 23 27 27
5 6 7 6 8 10 20 22 20 12 12 13 13 14 14 15 21 26 18 15 13 12 15 25 28 30 29 28 26 14 13 13 16 14 8 11 10 7 6 9 10 26 27
7 7 8 8 10 11 19 21 19 9 11 10 12 14 20 21 26 26 17 14 14 14 14 14 14 18 21 19 28 18 12 14 16 14 10 10 10 3 4 6 10 10 12
Wind_Direction
176 163 174 163 178 163 174 175 184 203 268 314 338 329 322 323 318 316 317 318 320 310 297 279 263 263 257 244 221 231 183 348 15 352 6 352 35 23 18 7 356 6 24
177 196 175 188 175 189 201 173 174 190 234 303 305 308 297 300 302 303 303 314 319 323 315 289 267 257 251 238 235 220 199 288 325 332 325 351 45 20 300 7 346 334 347
208 192 163 183 203 177 172 161 160 153 178 211 288 313 322 313 304 298 293 284 299 309 316 321 292 265 257 256 227 209 242 265 284 45 309 308 348 270 40 315 319 306 292
299 221 217 217 196 177 168 174 152 200 218 203 286 298 293 303 306 303 304 301 297 297 306 313 332 328 288 254 256 244 263 247 266 264 278 298 42 56 231 291 298 319 305
16 5 0 356 340 296 137 141 61 0 242 241 248 257 272 278 268 273 279 287 288 288 297 301 317 327 325 301 253 253 261 232 255 226 265 258 255 243 262 270 270 267 266
31 34 33 30 22 22 22 20 37 55 357 333 323 288 264 253 257 252 246 247 256 274 286 295 308 311 316 319 290 264 270 251 235 240 248 258 275 276 266 259 253 259 260
30 34 36 31 20 41 40 44 50 14 2 3 314 330 296 262 262 267 298 279 283 286 281 283 291 302 307 305 302 285 282 243 232 223 247 254 256 257 258 254 260 255 255
37 38 35 35 32 36 35 32 29 6 10 40 21 250 341 331 348 346 297 257 258 271 285 283 284 282 285 293 293 294 289 288 270 247 251 243 252 251 253 252 253 253 253
32 36 42 40 30 28 32 34 30 26 354 348 18 221 319 289 312 315 333 313 287 267 260 248 257 260 262 261 278 285 287 286 281 284 263 232 243 247 248 249 248 247 249
39 37 38 37 41 38 28 13 12 12 19 347 336 304 283 308 294 313 312 308 315 279 281 272 258 254 246 248 253 255 266 274 276 279 281 268 234 241 246 248 247 245 243
37 31 33 38 41 37 29 23 17 22 13 352 3 338 319 262 242 254 300 317 309 253 250 251 255 256 251 242 244 249 258 263 266 269 275 281 229 228 239 247 248 247 241
33 29 26 29 32 27 24 18 22 29 15 12 4 357 322 314 328 294 285 296 273 264 271 266 251 250 240 235 246 247 247 251 258 264 270 262 222 222 230 242 250 252 248
28 19 18 24 27 20 17 10 16 20 17 15 358 340 332 305 299 288 294 295 290 299 283 251 248 249 255 229 236 240 247 251 252 254 260 248 220 216 226 236 245 249 250
34 13 16 21 18 18 10 9 4 2 4 1 350 342 320 310 308 304 291 292 300 290 289 254 284 247 250 251 253 255 244 248 253 250 248 234 224 222 229 234 242 246 247
27 18 23 21 14 12 14 2 354 345 341 330 318 316 303 301 292 283 285 278 267 295 293 293 287 288 285 282 266 250 240 245 250 254 246 240 226 234 238 237 240 241 242
22 16 12 14 4 357 352 354 348 331 329 318 310 299 288 288 300 285 273 271 253 261 279 18 268 256 263 276 271 254 244 246 251 252 250 241 237 236 236 237 238 238 238
12 10 5 0 355 349 339 331 318 311 320 312 309 303 302 290 293 287 285 273 268 244 267 287 279 280 272 269 271 255 252 249 252 248 246 246 243 237 233 232 234 235 235
12 3 359 353 343 337 333 329 321 316 305 306 303 296 295 299 296 284 277 281 273 268 270 277 284 281 253 264 266 272 265 238 242 248 250 248 245 243 237 231 229 229 230
346 345 354 349 343 336 329 321 308 305 300 296 296 292 292 291 288 287 281 284 280 278 274 272 277 282 280 250 270 265 260 262 236 244 253 252 249 244 241 234 228 225 223
357 358 357 347 341 333 324 317 320 315 308 301 299 293 292 288 287 287 280 278 279 281 280 277 277 279 277 277 235 267 270 237 265 243 243 244 242 242 241 239 232 226 222
6 352 344 342 337 331 329 327 319 310 307 303 303 302 299 295 292 292 289 285 283 279 276 281 284 283 275 276 266 252 255 262 253 241 255 243 235 237 239 240 241 229 223
359 348 342 332 329 325 321 319 318 311 308 304 303 303 300 292 290 293 291 288 282 281 279 282 283 278 281 275 271 272 272 275 281 192 233 256 221 239 234 228 227 228 223
341 339 334 330 319 313 317 317 316 307 302 301 303 304 303 299 302 296 295 292 292 291 284 285 281 274 281 280 283 279 270 263 266 259 214 257 205 242 232 236 232 231 230
343 330 321 309 309 311 315 316 313 309 302 297 297 298 297 298 293 292 287 281 278 275 272 267 267 274 273 280 277 277 277 279 274 262 210 260 218 238 221 224 232 232 231
325 301 305 312 305 301 308 311 314 305 297 293 292 289 283 286 288 290 286 285 285 285 285 285 285 285 289 292 285 272 266 266 258 257 226 246 245 246 207 231 222 232 231
302 311 306 302 289 290 299 308 313 299 295 292 284 281 279 286 291 292 288 285 282 278 274 271 271 272 273 269 271 282 278 265 269 265 239 225 241 165 266 211 213 212 220